Tracking 30701 objects as of 14-Jun-2025
HD Live streaming from Space Station
objects crossing your sky now

STARLINK-4740

Track STARLINK-4740 now!
10-day predictions
STARLINK-4740 is classified as:


NORAD ID: 53871
Int'l Code: 2022-114BF
Perigee: 545.9 km
Apogee: 547.9 km
Inclination: 53.2 °
Period: 95.4 minutes
Semi major axis: 6917 km
RCS: Unknown
Launch date: September 19, 2022
Source: United States (US)
Launch site: AIR FORCE EASTERN TEST RANGE (AFETR)
Your satellite tracking list
Your tracking list is empty




NASA's NSSDC Master Catalog

Two Line Element Set (TLE):
1 53871U 22114BF  25164.92669400 -.00000603  00000-0 -19798-4 0  9997
2 53871  53.2189  30.2656 0001401  93.3004 266.8148 15.08834852152828
Source of the keplerian elements: AFSPC